#timestamp,LO_Frequency,Hit,StdDev 
1636527615.6,286047001.0,N
1636527635.4,286046998.1,N
1636527655.2,286046998.6,N
1636527675.1,286046999.0,N
1636527676.0,286046999.0,N
1636527695.8,286046998.4,N
1636527715.7,286046998.1,N
1636527735.5,286046998.6,N
1636527755.3,286047000.5,N
1636527775.2,286047000.2,N
1636527795.0,286047000.2,N
1636527795.9,286047000.2,N
1636527815.7,286046999.8,N
1636527835.6,286047000.9,N
1636527855.4,286046999.8,N
1636527875.3,286047002.3,N
1636527895.1,286047002.6,N
1636527896.0,286047002.6,N
1636527915.8,286047000.3,N
1636527935.7,286047000.9,N
1636527955.5,286046999.1,N
1636527975.3,286047000.8,N
1636527995.2,286046998.7,N
1636528015.0,286046998.9,N
1636528015.9,286046998.9,N
1636528035.8,286046998.4,N
1636528055.6,286046998.9,N
1636528075.4,286046999.4,N
1636528095.3,286046998.4,N
1636528115.1,286047001.2,N
1636528135.9,286047001.2,N
1636528155.7,286046999.9,N
1636528175.5,286047001.0,N
1636528195.4,286046998.3,N
1636528215.2,286046998.4,N
1636528235.0,286046998.3,N
1636528235.9,286046998.3,N
1636528255.8,286046996.5,N
1636528275.6,286046998.9,N
1636528295.5,286046999.4,N
1636528315.3,286046998.2,N
1636528335.1,286047001.2,N
1636528355.9,286046998.7,N
1636528375.7,286047001.2,N
1636528395.5,286046998.7,N
1636528415.4,286047000.2,N
1636528435.2,286047001.1,N
1636528455.1,286046999.4,N
1636528456.0,286046999.4,N
1636528475.8,286046999.1,N
1636528495.6,286046997.2,N
1636528515.5,286046997.8,N
1636528535.3,286046995.5,Y
1636528555.1,286046997.3,P
1636528575.9,286046999.2,N
1636528595.7,286046999.6,N
1636528615.6,286046997.1,Y
1636528635.4,286046999.2,P
1636528655.2,286046998.4,P
1636528675.1,286046998.9,P
1636528676.0,286046998.9,Y
1636528695.8,286047000.1,P
1636528715.7,286047000.8,N
1636528735.5,286047001.1,N
1636528755.3,286046998.1,N
1636528775.2,286046999.3,N
1636528795.9,286046999.0,N
1636528815.7,286046996.5,Y
1636528835.6,286046996.8,P
1636528855.4,286046997.7,N
1636528875.3,286046996.9,N
1636528895.1,286046996.6,Y
1636528896.0,286046996.6,P
1636528915.8,286046999.9,N
1636528935.7,286047000.0,N
1636528955.5,286046999.7,N
1636528975.3,286047000.2,N
1636528995.2,286047002.3,N
1636529015.0,286047000.5,N
1636529015.9,286047000.5,N
1636529035.8,286047002.8,N
1636529055.6,286047000.0,N
1636529075.4,286046999.7,N
1636529095.3,286047001.0,N
1636529115.1,286047000.1,N
1636529135.9,286047002.3,N
1636529155.7,286047002.0,N
1636529175.5,286047000.1,N
1636529195.4,286046999.7,N
1636529215.2,286046999.8,N
1636529235.0,286047002.4,N
1636529235.9,286047002.4,N
1636529255.8,286047000.1,N
1636529275.6,286047001.0,N
1636529295.5,286047000.9,N
1636529315.3,286047002.4,N
1636529335.1,286047000.0,N
1636529355.9,286047000.5,N
1636529375.7,286046999.8,N
1636529395.5,286047000.6,N
1636529415.4,286047000.4,N
1636529435.2,286047002.1,N
1636529455.0,286047002.4,N
1636529456.0,286047002.4,N
1636529475.8,286047002.3,N
1636529495.6,286047000.4,N
1636529515.5,286047002.4,N
1636529535.3,286047001.4,N
1636529555.1,286047001.7,N
1636529575.9,286047002.5,N
1636529595.7,286047002.3,N
1636529615.6,286047001.0,N
1636529635.4,286047000.5,N
1636529655.2,286047002.4,N
1636529675.1,286047002.5,N
1636529676.0,286047002.5,N
1636529695.8,286047001.7,N
1636529715.6,286047002.1,N
1636529735.6,286047001.3,N
1636529755.4,286047002.6,N
1636529775.2,286046999.7,N
1636529795.1,286047000.1,N
1636529796.0,286047000.1,N
1636529815.8,286047000.7,N
1636529835.6,286047000.6,N
1636529855.5,286046998.3,N
1636529875.3,286046998.4,N
1636529895.2,286046998.4,N
1636529915.9,286047001.1,N
1636529935.7,286046999.8,N
1636529955.6,286047000.0,N
1636529975.4,286047000.8,N
1636529995.2,286047000.7,N
1636530015.1,286047001.1,N
1636530016.0,286047001.1,N
1636530035.8,286046998.2,N
1636530055.7,286046998.7,N
1636530075.5,286046996.9,N
1636530095.3,286046996.8,N
1636530115.2,286046996.8,N
1636530135.0,286046999.2,N
1636530135.9,286046999.2,N
1636530155.7,286046997.1,N
1636530175.6,286046997.2,N
1636530195.4,286046996.5,N
1636530215.3,286046999.1,N
1636530235.1,286046999.1,N
1636530236.0,286046999.1,N
1636530255.8,286046999.6,N
1636530275.7,286046997.0,N
1636530295.5,286046998.9,N
1636530315.3,286046998.8,N
1636530335.2,286046997.2,N
1636530355.0,286046997.0,N
1636530355.9,286046997.0,N
1636530375.8,286046997.7,N
1636530395.6,286046997.0,N
1636530415.4,286046997.3,N
1636530435.3,286046997.5,N
1636530455.1,286046997.0,N
1636530475.9,286046997.4,N
1636530495.1,286046999.1,N
1636530496.0,286046999.1,N
1636530515.8,286046999.6,N
1636530535.7,286046998.7,N
1636530555.5,286046999.5,N
1636530575.3,286046996.8,Y
1636530595.2,286047000.8,P
1636530615.0,286047000.0,N
1636530615.9,286047000.0,N
1636530635.8,286046998.2,N
1636530655.6,286046998.1,N
1636530675.4,286046999.4,N
1636530695.3,286046999.4,N
1636530715.1,286046999.6,N
1636530735.9,286046996.8,Y
1636530755.7,286047000.5,P
1636530775.5,286047000.4,N
1636530795.4,286046999.9,N
1636530815.2,286046998.9,N
1636530835.1,286046998.6,N
1636530836.0,286046998.6,N
1636530855.8,286046998.4,N
1636530875.6,286046998.3,N
1636530895.5,286046998.2,N
1636530915.3,286047000.6,N
1636530935.2,286047000.5,N
1636530955.9,286047001.2,N
1636530975.7,286046998.2,N
1636530995.6,286047002.8,N
1636531015.4,286047002.4,N
1636531035.2,286047000.0,N
1636531055.1,286047004.0,N
1636531056.0,286047004.0,N
1636531075.8,286047002.4,N
1636531095.7,286047002.6,N
1636531115.5,286047001.9,N
1636531135.3,286047001.8,N
1636531155.2,286047004.0,N
1636531175.0,286047001.4,N
1636531175.9,286047001.4,N
1636531195.8,286047001.4,N
